DMSP 5D-2 F13 DEB, 40447

Orbit data source: Space-Track

DMSP 5D-2 F13 DEB, 40447 is space debris in SSO originally from a launch on Fri, 24 Mar 1995 UTC launched from the Air Force Western Test Range (AFWTR). Debris objects in space refer to the collection of defunct objects orbiting the Earth. Examples of debris include non-operational satellites, rocket bodies, and fragments generated from explosions, collisions, or faulty payload assembly.

Loading next visibility...
Identifier
40447, 1995-015AZ
Orbit
SSO
Country
Flag of USUS
Related business
Manufacturer
Unknown
Mission
Spacecraft
Bus & Motor
Unknown
Mass
Unknown
Launch date (UTC)
1995-03-24 (31 years ago)
Launch vehicle
Unknown
Launch site
Air Force Western Test Range (AFWTR)
Object type
Payload
Rocket body
Debris
Shape & HBR
Unknown shape, 0.1 m
Radar Cross Section
Small (<0.1 m²)

Expand to show TLE details & history
Last TLE update: 19 hours ago

TLE from 19 hours ago
0 DMSP 5D-2 F13 DEB
1 40447U 95015AZ  25343.05774371  .00002376  00000-0  92608-3 0  9996
2 40447  98.6546   5.7711 0012782 164.6713 195.4859 14.30600076559072
Epoch: 2025-12-09T01:23Z
TLE epoch observation values (Epoch: 2025-12-09T01:23:09.056Z)
Latitude
-0.00004°
Longitude
-93.06451°
Altitude
801.488 km
Speed
7.448 km/s
True Right ascension
00h 23m 05s
True Declination
0° 00' 00"
Sunlit
Object was in daylight at epoch
Visualization orbit readout
Latitude
Unknown
Longitude
Unknown
Altitude
Unknown
Speed
Unknown
Apparent Right ascension
Unknown
Apparent Declination
Unknown
Sunlit
N/A
Visualization observer readout
Local Sidereal Time
19:01:23
Azimuth
Unknown
Elevation
Unknown
Doppler factor
Unknown
Orbital elements
Apogee altitude
796.026 km
Perigee altitude
777.709 km
Semi-major axis
7,165.005 km
Eccentricity
0.00128
Inclination
98.6546°
RAAN
5.7711°
Arg. of periapsis
164.6713°
True anomaly
195.44685°
Mean anomaly
195.4859°
Eccentric anomaly
195.46637°
Mean motion
3.57864 °/min
Orbital period
100.6 mins
BSTAR
0.00092608
Loading maneuver chart data...
Computing Atmospheric mass density...

Documentation

Showing up to 5 results
|